[Iaude] MPEC M26: 2022 MH [a=1.05,e=0.37,i=3.5,H=27.3]

mpec at marsden.cfa.harvard.edu mpec at marsden.cfa.harvard.edu
Tue Jun 21 08:52:46 EDT 2022


M.P.E.C. 2022-M26                                 Issued 2022 June 21, 12:51 UT

     The Minor Planet Electronic Circulars contain information on unusual
         minor planets and routine data on comets.  They are published
    on behalf of Division F of the International Astronomical Union by the
          Minor Planet Center, Smithsonian Astrophysical Observatory,
                          Cambridge, MA 02138, U.S.A.

             Prepared using the Tamkin Foundation Computer Network

                              MPC at CFA.HARVARD.EDU
            URL https://www.minorplanetcenter.net/    ISSN 1523-6714

                                    2022 MH                                     


Observations:
     K22M00H* C2022 06 20.43732815 51 33.950+03 43 35.00         16.94oVEM026T08
     K22M00H  C2022 06 20.44239115 51 58.963+03 30 14.44         17.03oVEM026T08
     K22M00H  C2022 06 20.45067815 52 39.530+03 08 43.66         16.89oVEM026T08
     K22M00H  C2022 06 20.48291615 55 12.480+01 48 25.63         17.23oVEM026T08
     K22M00H KC2022 06 20.84005216 18 34.13 -08 43 23.5          17.5 GXEM026595
     K22M00H KC2022 06 20.85781516 19 14.36 -09 05 12.6          18.4 GXEM026595
     K22M00H KC2022 06 20.86182616 19 23.37 -09 10 03.7          18.0 GXEM026595
     K22M00H KC2022 06 20.86583516 19 32.12 -09 14 51.1          18.5 GXEM026595
     K22M00H KC2022 06 20.91137716 21 09.33 -10 08 04.0          17.7 GVEM026G34
     K22M00H KC2022 06 20.91398216 21 27.54 -10 10 56.0          17.2 VqEM026J69
     K22M00H bC2022 06 20.91403116 21 14.11 -10 09 59.1          17.9 GVEM026L01
     K22M00H KC2022 06 20.91465116 21 16.25 -10 11 41.0          17.0 GVEM026G34
     K22M00H bC2022 06 20.91502616 21 16.12 -10 11 04.2          17.6 GVEM026L01
     K22M00H bC2022 06 20.91602016 21 18.15 -10 12 09.8          17.9 GVEM026L01
     K22M00H KC2022 06 20.91665116 21 33.17 -10 13 52.7          17.3 VqEM026J69
     K22M00H bC2022 06 20.91701416 21 20.19 -10 13 15.4          17.8 GVEM026L01
     K22M00H KC2022 06 20.91792416 21 22.88 -10 15 15.0          16.7 GVEM026G34
     K22M00H bC2022 06 20.91800816 21 22.25 -10 14 20.4          17.9 GVEM026L01
     K22M00H bC2022 06 20.91900216 21 24.24 -10 15 24.8          17.9 GVEM026L01
     K22M00H KC2022 06 20.91921516 21 38.36 -10 16 41.2          17.4 VqEM026J69
     K22M00H KC2022 06 20.92156016 21 32.16 -10 17 59.8          17.8 GVEM026104
     K22M00H KC2022 06 20.92547016 21 40.00 -10 22 14.1          17.7 GVEM026104
     K22M00H KC2022 06 20.92742516 21 43.93 -10 24 20.2                VEM026104
     K22M00H KC2022 06 20.92754516 21 41.83 -10 24 47.8          17.8 GXEM026595
     K22M00H KC2022 06 20.93169016 22 03.202-10 30 16.31         18.0 GVEM026Z80
     K22M00H KC2022 06 20.93202216 21 50.80 -10 29 35.7          17.9 GXEM026595
     K22M00H KC2022 06 20.93649616 21 59.76 -10 34 22.1          18.1 GXEM026595
     K22M00H KC2022 06 20.93719616 22 14.309-10 36 08.57         17.3 GVEM026Z80
     K22M00H KC2022 06 20.93771116 22 16.236-10 36 41.08         18.0 GVEM026J95
     K22M00H KC2022 06 20.93903916 22 18.847-10 38 05.68         17.8 GVEM026J95
     K22M00H KC2022 06 20.94032816 22 21.458-10 39 27.14         17.7 GVEM026J95
     K22M00H KC2022 06 20.94225116 22 25.270-10 41 28.39         17.6 GVEM026J95
     K22M00H KC2022 06 21.02105716 24 44.39 -11 58 10.4          17.9 GVEM026204
     K22M00H KC2022 06 21.02680316 24 54.83 -12 03 28.4                VEM026204
     K22M00H KC2022 06 21.04963716 26 19.841-12 07 23.49         19.2 GXEM026Y00
     K22M00H KC2022 06 21.05086316 26 21.769-12 08 30.21         18.2 GXEM026Y00
     K22M00H KC2022 06 21.05209016 26 23.647-12 09 37.70         18.3 GXEM026Y00
     K22M00H KC2022 06 21.17237416 30 02.25 -14 04 53.5          18.1 VuEM026H21
     K22M00H KC2022 06 21.17331216 30 03.53 -14 05 36.4          18.2 VuEM026H21
     K22M00H KC2022 06 21.17425216 30 04.82 -14 06 18.6          18.2 VuEM026H21
     K22M00H KC2022 06 21.17613216 30 07.38 -14 07 43.9          18.2 VuEM026H21
     K22M00H KC2022 06 21.17730616 30 08.97 -14 08 36.8          18.3 VuEM026H21
     K22M00H  C2022 06 21.20124016 31 08.202-14 25 07.59         18.2 GVEM026654
     K22M00H  C2022 06 21.28442016 32 50.115-15 22 39.76         18.2 GVEM026654

Observer details:
104 San Marcello Pistoiese.  Observers P. Bacci, M. Maestripieri.  Measurers
    P. Bacci, L. Tesi, G. Fagioli.  0.60-m F4 Reflector + CCD.
204 Schiaparelli Observatory.  Observer L. Buzzi.  0.84-m f/3.5 reflector +
    CCD.
595 Farra d'Isonzo.  Observers F. Fabris, E. Pettarin, S. Aschi, G. Ierman.
    Measurers E. Pettarin, S. Aschi.  0.61-m f/4.5 reflector + CCD.
654 Table Mountain Observatory, Wrightwood-PHMC.  Observers N. Evans, P. Choi,
    N. Saini, C. Zhai, R. Trahan, M. Shao.  1.0-m Reflector + CCD.
G34 Oberfrauendorf.  Observer T. Felber.  0.35-m f/6.3 Schmidt-Cassegrain +
    CCD.
H21 Astronomical Research Observatory, Westfield.  Observer R. Holmes.
    Measurers T. Linder, R. Holmes, L. Horn.  0.76-m f/3.0 astrograph + CCD.
J69 North Observatory, Clanfield.  Observer D. Briggs.  0.3-m f/5.4 Newtonian
    reflector + CCD.
J95 Great Shefford.  Observer P. Birtwhistle.  0.41-m f/6.3 Schmidt-Cassegrain
    + CCD.
L01 Visnjan Observatory, Tican.  Observer K. Korlevic.  1.0-m f/2.9 reflector
    + CCD.
T08 ATLAS-MLO, Mauna Loa.  Observers L. Denneau, R. Siverd, J. Tonry, H.
    Weiland.  Measurers L. Denneau, N. Erasmus, A. Fitzsimmons, A. Lawrence,
    J. Robinson, R. Siverd, J. Tonry, H. Weiland.  0.5-m Reflector + CCD.
Y00 SONEAR Observatory, Oliveira.  Observer C. Jacques.  0.45-m f/2.9 0.45-m
    f/2.9 reflector + CCD.
Z80 Northolt Branch Observatory.  Observer G. Wells.  Measurers G. Wells, D.
    Bamberger.  0.25-m f/8.0 Ritchey-Chretien + CCD.

Orbital elements:
2022 MH                                                  Earth MOID = 0.0025 AU
Epoch 2022 Aug. 9.0 TT = JDT 2459800.5                  Veres                   
M 110.66595              (2000.0)            P               Q                  
n   0.92092102     Peri.   70.23773     -0.94215494     -0.32955366             
a   1.0462957      Node    90.48219     +0.28006395     -0.87424467             
e   0.3683956      Incl.    3.50554     +0.18414195     -0.35649774             
P   1.07           H   27.36          G   0.15           U   6                  
Residuals in seconds of arc
220620 T08  0.2+  0.6+    220620 L01  0.5-  0.2-    220620 J95  0.1+  0.0
220620 T08  0.5-  0.3-    220620 G34  0.1+  0.2-    220620 J95  0.2-  0.4+
220620 T08  0.4-  0.2-    220620 L01  0.1+  0.1+    220621 204  0.1-  0.7+
220620 T08  0.8+  0.7-    220620 L01  0.4-  0.8+    220621 204  0.6-  0.0
220620 595  0.7+  0.8+    220620 J69  0.4-  0.4-    220621 Y00  0.3+  0.4-
220620 595  0.5-  0.7+    220620 104  0.2-  0.2-    220621 Y00  0.6+  0.0
220620 595  0.7+  0.2-    220620 104  0.3-  0.2-    220621 Y00  0.3+  0.5-
220620 595  0.9-  0.4+    220620 104  0.0   0.3+    220621 H21  0.0   0.0
220620 G34  0.9+  0.5-    220620 595  0.2-  0.4+    220621 H21  0.0   0.3-
220620 J69  0.7-  0.0     220620 Z80  0.1+  0.5+    220621 H21  0.1+  0.0
220620 L01  0.4-  0.4-    220620 595  0.4-  0.4+    220621 H21  0.2+  0.3-
220620 G34 (2.4+  1.2-)   220620 595  0.1+  0.4-    220621 H21  0.1+  0.3-
220620 L01  0.7-  0.2+    220620 Z80  0.5+  0.3+    220621 654  0.0   0.0
220620 L01  0.7-  0.1+    220620 J95  0.2+  0.1-    220621 654  0.2-  0.0
220620 J69  0.9+  0.5-    220620 J95  0.5-  0.3-

Ephemeris:
2022 MH                  a,e,i = 1.05, 0.37, 4                   q = 0.6608
Date    TT    R. A. (2000) Decl.     Delta      r    Elong.  Phase     V
2022 05 22    05 11 52.3 +30 35 54   0.2024  0.8254    20.4   154.7    32.9
...
2022 06 06    05 18 40.5 +32 26 58   0.09124 0.9253    11.2   167.7
...
2022 06 14    05 26 08.3 +34 59 56   0.03810 0.9783    11.8   167.8
...
2022 06 20    14 40 20.4 +33 31 14   0.0032861.0171   106.9    72.9    17.5
2022 06 21    16 24 31.4 -11 22 36   0.0079991.0235   154.9    24.9    18.1
2022 06 22    16 45 22.6 -20 32 57   0.01416 1.0298   162.2    17.6    19.1
...
2022 06 28    17 07 03.3 -28 43 33   0.05290 1.0669   161.4    17.7    22.0
...
2022 07 06    17 13 09.4 -30 03 44   0.1063  1.1141   155.2    22.5    23.8
...
2022 07 21    17 23 33.0 -30 24 27   0.2137  1.1947   143.5    30.4    25.7

M. P. C. Staff               (C) Copyright 2022 MPC           M.P.E.C. 2022-M26




More information about the Iaude mailing list